ECMWFFLT1_700_spd_222.txt.gz
Wind_Speed
28 28 29 29 30 31 32 32 33 33 33 33 32 32 31 30 30 29 29 29 29 30 30 30 31 32 33 33 34 34 35 36 37 38 39 39 40 40 40 41 43 44 45 46 46 46 46 46 47 47 47 47 47 46 46 46 44 43 43 43 43 43 44
30 30 31 31 32 32 33 33 34 34 34 34 35 34 34 34 33 33 32 32 32 32 32 32 33 33 34 35 36 36 37 38 39 39 40 40 41 42 43 43 45 46 48 48 48 47 47 47 47 47 47 47 48 47 47 47 47 46 44 44 44 43 43
30 31 31 32 32 33 33 33 34 34 35 35 35 35 35 36 35 35 34 34 34 34 34 34 35 35 35 35 36 36 36 38 38 39 39 39 40 41 41 42 44 46 48 49 49 48 47 47 47 47 46 46 47 47 47 48 48 48 47 46 46 45 44
29 30 30 30 31 32 32 33 33 33 34 34 34 34 34 35 35 35 35 34 34 34 34 35 35 35 35 35 36 36 36 37 37 37 37 37 38 39 40 40 41 43 46 47 48 47 46 45 45 45 45 45 46 46 47 47 48 48 48 48 48 47 45
29 29 29 30 30 30 31 31 32 32 32 33 33 34 34 34 34 34 35 35 35 35 35 35 35 35 36 36 36 37 37 37 37 38 38 38 38 38 39 39 40 41 43 45 46 46 45 44 44 44 44 44 44 45 46 46 47 47 48 48 49 48 47
30 30 30 30 30 31 31 31 32 32 32 32 32 33 33 34 34 34 35 35 35 35 35 35 35 36 36 36 37 37 38 38 38 39 39 39 39 38 39 39 39 40 41 42 44 44 44 43 43 43 43 43 43 44 45 46 46 47 47 47 48 48 47
31 31 31 31 32 32 32 32 32 33 33 33 33 33 34 34 34 34 35 35 35 35 35 35 35 35 36 36 37 37 37 38 38 39 39 39 39 39 39 39 39 39 40 41 42 43 43 43 42 42 42 42 42 43 45 45 46 46 46 46 47 47 47
33 33 33 33 34 34 34 34 34 34 34 34 35 35 35 35 36 36 36 36 36 36 36 36 36 36 36 37 37 37 37 37 38 38 38 38 38 38 39 39 40 40 41 41 42 42 43 43 43 42 41 40 40 42 43 43 44 45 45 45 46 47 47
35 36 36 36 36 37 37 37 37 37 37 37 37 37 37 37 37 37 37 37 37 38 38 38 38 37 38 38 38 38 38 38 38 38 38 38 38 38 38 38 38 39 41 42 42 43 43 44 44 43 42 41 40 40 41 42 43 44 44 44 45 45 45
37 37 37 38 38 38 39 39 39 39 40 40 40 40 39 39 39 39 39 38 38 38 38 39 39 39 39 39 39 40 40 40 40 40 40 39 39 39 39 38 38 38 39 40 42 43 44 45 45 46 45 44 43 42 42 42 43 44 45 45 46 45 45
37 37 38 38 39 39 40 41 41 41 41 42 43 43 43 43 42 42 41 40 39 39 39 40 40 41 41 41 41 41 41 41 41 40 40 40 39 39 39 40 39 39 39 40 41 41 42 44 45 46 47 47 46 45 45 45 45 46 47 47 48 47 46
38 38 39 39 39 39 40 41 42 42 43 43 44 45 45 45 45 44 44 43 42 42 42 42 42 43 43 43 43 43 43 43 43 42 42 42 42 42 42 42 42 42 42 42 42 42 42 43 44 45 46 46 47 47 46 47 47 48 49 49 50 50 50
40 40 41 41 41 41 41 42 43 43 44 45 45 46 47 48 47 46 45 45 45 45 46 46 45 46 46 46 46 46 46 46 46 46 46 46 46 46 46 46 46 46 46 45 46 46 45 45 46 46 46 47 48 48 47 47 48 48 49 50 51 51 51
42 43 43 44 44 44 44 45 45 46 46 47 47 48 50 51 50 50 49 48 48 48 49 49 49 49 49 49 50 50 50 50 50 51 51 50 50 50 50 50 50 50 50 50 50 50 50 50 50 50 50 50 50 50 50 49 49 49 50 50 51 51 51
44 45 45 46 47 47 47 47 47 48 49 50 50 51 52 53 53 53 53 53 52 52 52 53 53 53 53 53 53 53 54 54 54 54 55 55 54 54 53 53 53 53 53 54 54 54 54 54 54 54 54 54 54 54 54 54 53 52 52 52 52 51 51
46 47 48 48 49 50 50 50 50 51 51 52 53 54 55 55 56 57 57 57 56 55 56 56 56 57 57 56 56 56 57 57 57 58 58 58 58 57 57 56 56 56 56 56 57 58 58 58 57 57 57 57 58 59 58 58 57 55 54 53 53 53 52
49 50 51 51 52 53 53 53 54 54 54 55 56 57 57 58 58 59 60 60 60 59 59 59 59 60 60 60 60 60 59 59 60 60 60 60 60 59 59 59 59 59 59 59 59 60 60 60 60 59 59 60 60 61 60 59 58 57 56 56 56 56 55
53 54 54 55 55 56 56 56 57 57 57 57 58 59 60 61 61 62 62 63 63 62 62 62 62 62 63 63 63 62 61 61 62 62 62 62 62 61 61 61 61 61 61 60 60 60 61 61 61 61 61 61 62 62 61 61 60 59 59 59 59 59 59
57 57 58 58 59 59 59 60 60 60 60 60 60 61 62 63 64 64 65 65 65 65 65 65 65 65 65 65 65 64 64 63 64 64 64 64 64 64 63 63 63 63 62 61 61 61 61 61 61 61 61 62 62 62 62 61 61 61 61 61 61 61 61
60 60 60 61 61 62 62 63 63 63 62 62 62 62 63 65 65 65 65 66 66 66 67 67 67 66 66 66 66 66 66 66 66 66 66 66 67 67 67 66 66 66 65 64 63 62 61 61 61 61 62 63 63 63 63 62 62 62 62 63 62 62 62
61 62 62 62 62 62 62 63 63 63 63 62 62 62 63 63 64 64 65 65 66 66 66 66 66 66 66 66 66 67 67 67 67 68 69 70 70 70 70 70 69 69 68 67 65 63 63 63 63 63 64 65 65 65 65 65 64 64 64 64 64 64 64
60 60 60 59 59 59 59 59 59 59 59 59 58 58 58 58 58 59 61 62 62 62 62 62 63 63 63 64 64 65 66 67 68 69 70 69 69 69 69 70 70 69 69 68 66 65 65 65 66 66 66 66 66 66 66 66 66 65 66 66 66 66 66
57 56 55 55 55 55 55 55 55 55 55 54 54 53 53 53 54 54 56 57 57 57 57 58 58 58 59 59 60 61 63 64 65 66 65 65 65 66 67 68 68 69 69 69 68 68 68 68 68 68 67 67 67 67 67 67 67 66 67 67 67 68 68
54 54 53 53 52 52 52 52 52 52 52 52 52 51 51 51 51 52 53 54 54 54 54 54 54 55 55 55 56 58 59 60 60 61 61 61 62 63 64 65 66 67 67 68 69 69 69 69 68 67 67 67 67 67 67 67 67 67 67 67 67 67 67
54 54 54 54 53 52 51 51 51 51 50 50 50 50 50 50 50 50 51 52 52 53 53 53 53 53 53 53 54 55 56 56 57 57 57 58 58 59 60 61 62 63 64 65 65 66 66 66 65 65 65 65 65 65 65 65 65 65 65 65 65 65 65
54 54 54 54 53 53 52 51 51 50 50 49 50 50 49 49 49 49 49 50 51 51 52 52 53 53 53 52 52 53 53 53 54 54 55 55 55 56 56 57 58 59 59 60 61 61 62 62 62 62 62 62 62 62 62 62 62 62 62 63 63 64 64
51 52 51 52 52 51 51 50 49 49 49 49 49 49 49 49 48 48 49 49 50 50 51 51 52 52 52 51 51 51 51 52 52 52 53 53 53 53 54 54 55 56 56 57 57 57 57 57 58 58 58 58 58 58 59 58 59 59 59 59 59 61 62
47 47 48 49 49 48 48 47 46 46 46 46 47 47 47 47 47 48 48 48 49 49 50 50 50 50 49 49 49 50 50 50 50 50 51 51 51 51 51 52 53 53 54 54 54 54 54 54 54 54 54 55 55 55 55 55 55 56 56 56 56 58 59
44 44 45 45 45 45 45 44 43 42 43 44 44 45 45 46 46 47 47 48 48 49 49 48 48 47 46 46 47 48 49 48 48 48 49 49 49 49 50 50 50 50 51 52 52 52 51 51 51 51 51 52 52 52 51 51 52 52 52 53 54 55 55
41 42 42 42 42 43 43 42 41 40 40 41 41 42 43 43 44 45 46 47 48 48 47 46 46 45 45 45 46 47 47 47 47 47 47 47 47 47 47 48 48 48 49 49 49 49 49 49 49 49 49 49 49 49 49 49 49 49 49 50 51 51 51
39 40 41 41 41 41 40 40 40 40 39 39 39 40 40 41 42 44 45 45 45 45 45 45 45 44 44 44 44 45 45 45 45 45 45 44 44 45 45 46 46 46 47 46 46 46 46 46 46 47 47 47 47 47 47 46 46 47 47 48 48 49 49
37 38 39 40 40 40 39 39 39 39 39 39 38 38 39 40 41 42 42 42 42 43 44 44 44 43 42 42 43 43 44 44 43 43 43 43 42 42 43 44 44 44 44 43 43 43 43 43 44 45 45 45 45 45 45 44 44 44 45 45 46 46 47
36 36 37 38 38 38 38 38 37 37 37 38 38 37 38 38 38 39 39 40 41 42 42 42 42 42 41 41 41 41 42 42 41 41 41 41 41 41 41 42 42 42 42 41 41 41 41 41 42 43 43 43 43 43 43 43 42 42 42 43 44 44 44
33 34 35 35 35 36 36 36 36 35 35 35 35 36 36 36 35 36 37 38 39 40 41 41 41 41 40 40 40 40 40 40 40 39 39 39 39 40 40 40 40 41 41 41 40 40 40 41 41 42 42 42 42 42 42 42 41 41 41 41 42 42 42
29 31 32 32 32 32 32 32 32 32 32 32 32 33 34 34 34 34 35 35 37 38 40 40 41 40 40 39 39 39 39 38 38 39 39 39 39 39 39 39 39 39 39 40 39 39 39 40 41 41 41 41 41 41 41 40 40 39 39 40 40 41 41
25 26 28 29 30 29 29 29 29 29 29 29 29 30 31 31 31 32 32 32 33 35 37 38 39 39 40 39 39 38 38 37 38 38 38 38 38 38 38 38 38 38 38 38 38 38 38 39 39 39 39 39 40 39 39 39 39 38 38 38 38 39 39

ECMWFFLT1_700_spd_228.txt.gz
Wind_Speed
25 25 26 27 27 27 28 27 27 27 27 27 27 28 28 28 27 27 26 26 26 26 26 26 26 26 26 26 26 27 27 28 28 29 29 30 30 31 31 32 33 34 34 33 33 34 34 33 34 35 36 37 39 40 41 41 41 42 43 44 44 45 45
25 26 27 27 28 28 29 30 30 30 30 30 30 30 30 29 29 27 26 25 25 25 26 26 26 26 26 26 26 26 26 26 27 27 28 28 29 29 30 30 31 32 32 32 31 31 31 31 31 32 32 33 34 35 36 37 38 39 41 42 43 44 44
26 27 28 28 28 29 30 30 31 32 32 33 33 33 33 32 31 30 29 28 27 26 26 26 26 27 27 26 26 26 26 26 27 27 28 28 28 29 29 30 30 31 32 32 31 31 32 32 32 32 32 32 33 33 34 35 35 36 38 39 41 42 43
29 30 30 31 31 31 31 31 31 32 32 33 33 34 34 33 33 32 31 30 29 28 27 27 27 28 28 28 28 29 29 29 29 29 30 30 30 30 31 31 32 33 33 34 34 33 33 33 34 35 35 35 35 35 36 36 36 37 38 39 40 41 42
32 32 33 33 33 33 33 33 33 33 33 33 33 33 33 33 32 32 31 31 30 29 29 28 28 28 28 29 29 30 30 30 31 31 31 32 32 32 32 33 33 34 35 36 36 36 35 35 35 36 37 38 39 39 39 40 40 41 41 42 42 43 44
34 34 34 34 34 34 34 35 36 35 35 34 34 34 34 33 33 32 32 31 31 31 30 30 29 29 29 29 29 30 30 30 31 31 32 32 33 33 33 33 34 34 35 36 37 37 37 36 35 36 37 38 40 40 41 41 42 43 44 45 46 47 48
34 34 34 34 34 34 34 35 36 35 35 34 34 34 34 34 34 34 33 33 33 32 32 31 31 31 30 30 30 30 30 30 30 31 32 32 32 33 34 34 35 35 36 37 38 38 39 38 37 37 37 38 39 40 41 41 42 42 43 45 46 47 48
33 34 34 34 34 34 34 35 34 34 34 34 33 33 34 34 35 34 34 35 35 34 34 34 34 33 33 33 33 33 32 32 32 32 32 33 33 33 34 34 35 35 36 37 38 39 40 40 40 39 39 38 38 40 41 41 42 42 42 43 44 45 46
33 34 34 35 35 35 34 35 34 34 34 34 34 34 34 34 34 34 34 35 35 36 36 36 36 36 35 35 35 35 35 34 34 34 34 34 34 34 35 35 36 36 37 38 38 39 40 40 41 41 40 40 39 40 40 41 42 43 42 42 42 43 45
33 34 34 35 35 35 35 35 35 36 36 36 35 35 35 34 34 33 33 34 35 36 36 37 37 37 36 36 36 36 36 36 37 37 36 36 36 36 37 37 38 38 39 39 40 40 41 41 42 42 42 42 41 41 41 41 41 43 43 43 42 43 44
34 34 34 35 35 35 36 36 36 37 37 38 38 37 36 36 35 34 34 34 35 36 36 37 37 38 38 38 38 38 38 38 38 38 39 39 39 39 39 40 40 41 41 41 42 42 43 43 43 43 44 44 44 43 43 43 43 43 44 44 44 44 44
34 34 34 35 36 36 37 37 37 38 39 39 41 41 40 38 38 37 37 37 38 38 38 38 38 39 40 40 40 40 40 40 40 40 41 41 41 41 42 42 42 42 42 43 43 44 44 45 45 45 46 46 47 47 47 46 46 46 46 47 47 46 45
35 36 36 36 37 37 38 38 38 39 40 41 43 44 44 43 42 41 41 41 41 41 41 41 41 41 42 42 43 43 43 43 43 44 44 44 44 44 44 44 44 44 44 44 45 46 46 46 47 48 48 49 49 50 50 50 50 49 49 48 48 48 48
37 37 38 38 38 39 40 40 40 41 42 43 44 46 47 47 46 44 44 44 44 44 44 44 44 44 44 45 45 46 46 46 47 47 47 47 47 47 47 46 46 47 47 48 48 48 49 49 49 50 50 51 51 52 53 53 52 51 50 50 50 50 50
39 40 40 40 41 41 42 42 43 43 44 46 47 48 49 50 50 49 48 48 48 48 48 48 48 48 48 48 48 48 49 49 50 50 50 50 50 50 50 50 50 50 50 51 51 51 51 51 51 52 53 54 54 54 54 54 54 53 53 52 52 51 51
42 42 43 44 44 44 45 45 45 46 47 49 51 52 52 53 53 53 53 52 52 52 52 52 52 52 52 52 52 52 52 53 53 53 53 53 53 53 54 54 54 54 54 54 54 54 54 54 54 54 55 56 56 56 56 56 57 57 57 57 56 55 54
45 46 46 47 48 48 48 48 48 49 50 51 53 54 54 55 55 56 56 56 55 55 55 55 55 55 55 55 55 55 55 56 57 57 57 57 57 57 57 57 57 57 57 57 57 57 57 57 57 57 57 58 58 58 58 59 59 60 61 61 60 59 58
49 49 50 51 51 51 51 52 52 52 52 53 54 56 57 57 57 57 58 58 59 59 59 59 59 59 59 59 58 58 59 59 60 61 61 61 61 61 61 61 60 59 59 59 59 60 60 60 60 60 60 60 61 61 61 61 61 62 63 63 63 63 63
51 52 53 53 54 55 55 55 55 55 55 56 56 58 60 60 60 60 61 61 62 62 63 63 62 62 62 62 62 62 62 62 63 64 65 65 65 64 64 64 64 63 63 63 63 63 63 63 63 64 64 64 64 64 64 64 64 64 65 65 65 65 66
54 55 56 56 57 58 58 58 59 59 59 59 58 59 60 62 62 63 63 63 63 64 64 64 64 63 63 63 63 63 62 62 63 66 67 67 66 66 66 67 67 67 67 67 66 66 66 66 66 66 67 67 67 67 67 67 67 67 68 68 68 68 68
56 57 57 58 58 59 59 59 59 59 58 58 57 57 58 59 60 61 61 61 61 62 62 63 63 62 61 61 61 60 60 59 60 63 64 64 65 65 66 67 68 68 68 68 68 69 68 68 68 68 68 68 69 69 69 69 69 70 70 71 72 72 72
56 55 55 55 55 56 56 56 57 56 56 55 55 55 55 56 56 57 58 58 58 58 59 60 60 60 60 59 59 58 58 57 58 58 58 59 61 62 63 64 65 66 66 67 67 68 68 68 68 68 68 68 68 69 69 69 69 70 70 72 73 74 75
53 53 52 52 52 53 53 53 54 54 54 54 54 54 54 54 54 55 56 56 57 57 57 57 57 58 58 58 58 57 57 57 56 56 55 56 58 59 60 61 62 63 64 64 64 65 65 65 65 66 66 66 67 67 68 69 69 69 69 70 71 73 75
51 51 51 51 50 51 51 52 52 52 52 53 53 53 52 52 52 53 54 54 55 55 55 55 55 55 55 55 55 55 55 54 54 54 54 54 55 56 58 59 60 61 62 62 62 63 63 63 63 63 64 64 64 65 65 66 67 68 68 69 69 70 72
50 50 50 50 49 49 48 48 48 49 49 50 50 50 50 50 50 50 51 51 51 52 52 52 52 52 52 52 51 51 51 51 51 51 52 52 53 54 55 56 57 58 59 60 60 61 61 61 61 62 62 62 62 63 63 63 64 64 65 66 66 67 68
49 49 48 48 48 47 46 45 44 44 45 46 47 47 47 48 48 48 48 48 48 48 49 50 50 49 49 48 48 48 48 48 48 49 49 50 51 52 52 53 53 54 55 56 57 58 58 59 59 60 60 61 61 61 61 61 62 62 61 62 62 63 64
47 47 46 46 46 46 45 43 42 41 42 42 43 44 45 45 45 45 45 46 46 46 46 46 46 45 45 46 46 47 47 47 47 47 47 47 48 49 49 50 50 51 52 53 54 54 55 55 56 57 58 58 59 59 59 60 60 60 60 59 59 59 59
44 44 44 45 45 44 43 42 41 40 40 40 41 41 42 43 43 43 44 44 44 43 43 43 44 44 44 45 46 46 46 46 46 46 45 45 46 46 47 47 48 48 49 50 50 51 52 52 53 54 55 56 56 57 57 57 58 58 58 57 57 57 57
42 42 42 42 43 42 42 41 40 39 39 39 39 40 40 41 41 42 42 42 41 40 41 42 43 44 44 44 44 44 44 44 44 44 44 44 44 44 45 45 46 46 46 47 47 48 49 49 50 51 52 53 54 54 54 55 55 55 55 55 55 55 55
41 41 41 41 40 40 40 40 39 38 37 37 38 38 39 39 39 40 41 40 39 38 40 41 41 41 42 41 42 42 42 42 42 42 42 42 42 43 43 44 44 45 45 45 46 46 46 47 47 48 49 50 51 51 51 51 52 52 52 52 52 52 52
40 40 40 40 39 39 38 38 38 37 36 36 36 37 37 37 38 38 38 37 37 37 39 39 39 39 39 39 39 40 40 40 40 40 40 40 40 41 41 42 42 43 43 44 44 44 45 45 45 46 46 47 47 48 48 48 48 49 49 49 50 50 50
39 39 39 39 38 38 37 37 37 37 36 36 36 36 36 36 36 36 36 36 36 36 36 36 36 36 36 36 37 37 37 37 38 38 39 38 38 38 39 39 40 40 41 42 42 43 43 43 44 44 44 45 45 46 46 46 46 46 46 46 47 47 47
38 38 38 38 38 38 37 36 36 36 36 36 36 36 36 35 35 35 35 35 35 35 35 34 34 34 34 34 34 34 34 35 35 36 36 36 36 36 36 37 37 38 38 39 40 41 41 41 42 43 43 43 43 44 44 44 44 43 43 44 44 45 45
37 38 38 37 37 37 37 36 36 35 35 35 35 35 35 34 34 34 35 35 34 34 33 33 33 32 33 33 33 32 32 33 33 33 33 33 34 34 34 34 35 36 36 37 38 39 39 40 40 41 42 42 42 42 42 42 42 42 42 42 43 43 43
35 36 37 37 37 36 36 36 35 35 35 35 35 35 35 34 34 34 33 33 34 33 33 32 32 32 32 32 32 31 31 31 31 31 31 31 31 31 31 32 32 33 34 35 36 37 38 39 39 40 41 41 42 41 41 41 41 41 41 41 42 42 42
33 34 35 36 36 36 35 35 34 34 34 34 35 35 35 34 34 33 32 32 33 33 32 32 32 31 31 31 31 31 30 30 31 30 30 30 30 30 29 29 30 30 31 32 33 34 35 36 38 39 40 41 41 40 40 40 40 40 41 40 40 41 40

ECMWFFLT1_700_spd_234.txt.gz
Wind_Speed
30 29 28 28 28 28 27 26 25 25 25 25 25 25 24 22 21 20 20 21 22 22 23 23 23 24 24 25 26 27 28 30 31 31 31 32 32 33 35 37 39 41 43 44 45 46 47 47 48 48 48 48 48 48 48 49 49 48 48 48 49 49 49
29 29 29 29 29 29 28 27 26 25 25 24 23 22 22 21 20 20 20 21 21 22 23 23 24 25 25 26 26 27 27 28 28 29 30 31 31 31 32 32 33 35 36 37 39 40 42 43 44 45 46 46 47 47 48 48 48 48 48 48 48 49 49
28 28 29 28 28 28 28 27 25 24 22 22 21 20 20 21 21 21 21 21 22 22 23 24 25 26 26 27 28 28 29 29 29 29 29 29 30 30 31 31 31 31 31 31 32 33 34 35 37 38 39 40 41 42 43 45 46 46 47 47 47 48 48
28 26 27 27 26 26 26 25 24 22 21 21 21 21 21 21 21 22 22 22 23 23 24 25 25 26 27 28 28 29 30 30 31 31 30 30 30 30 30 30 31 31 30 30 30 30 30 30 31 32 32 33 33 34 35 37 39 41 42 43 44 44 45
28 27 26 25 23 23 23 22 21 21 20 20 21 21 21 22 22 23 24 24 25 25 26 26 27 27 27 28 29 29 30 31 31 32 32 32 32 32 31 31 31 31 31 31 31 31 30 30 30 31 30 30 30 30 31 31 32 33 35 36 37 38 39
26 27 26 25 24 23 21 21 20 20 20 21 21 21 22 22 23 24 25 26 26 27 28 28 28 29 29 29 29 30 30 30 31 32 33 33 34 34 34 33 33 33 33 33 33 33 33 32 32 32 32 32 31 31 31 31 31 31 31 31 32 33 33
25 26 26 26 26 25 24 22 21 21 20 21 22 22 23 23 24 25 25 26 27 28 28 29 29 29 29 30 30 30 30 30 31 31 32 33 34 35 35 35 35 35 35 35 35 35 35 35 35 34 34 34 34 34 34 34 33 33 33 33 33 33 33
26 26 26 26 26 26 26 25 25 23 22 22 23 23 24 25 25 25 26 27 27 28 28 29 29 29 29 29 30 31 31 31 32 32 32 33 33 34 35 36 37 37 37 37 37 37 37 37 37 37 36 36 36 36 36 36 35 35 35 35 35 35 35
26 27 27 27 27 27 27 27 28 28 27 26 25 25 26 26 27 27 27 27 28 28 28 29 29 29 29 30 30 30 31 31 32 32 33 33 34 34 35 36 37 38 38 38 38 38 38 38 38 38 38 38 38 38 37 37 37 37 36 36 36 37 37
26 26 26 27 27 27 28 29 30 31 31 30 28 27 28 28 28 28 28 28 29 29 29 29 29 30 30 30 30 31 31 31 31 32 32 33 33 34 35 36 37 38 39 39 40 40 40 39 39 39 39 39 39 39 39 38 38 38 38 37 37 37 38
27 27 27 27 28 28 29 30 31 33 34 34 30 29 29 29 29 29 29 29 29 29 29 29 30 30 30 31 32 32 32 32 32 32 32 32 32 33 33 34 35 36 38 39 40 41 41 41 41 41 41 41 41 41 41 40 40 39 39 38 38 38 39
28 29 29 30 30 30 31 31 32 33 36 37 34 30 29 29 30 30 30 30 30 30 30 30 30 31 32 32 33 33 34 34 34 33 33 33 34 34 34 34 35 36 36 37 38 39 40 41 41 41 42 42 42 42 43 43 43 42 42 41 40 40 40
31 31 31 32 32 33 33 33 33 34 36 39 38 33 30 30 31 31 32 32 32 32 32 32 32 33 34 35 35 36 36 37 37 37 37 37 37 37 37 37 38 38 38 39 39 39 40 41 41 42 42 42 43 43 43 44 44 44 44 44 44 44 43
32 33 33 33 34 34 35 35 35 36 37 39 40 37 34 33 33 34 35 35 35 35 36 36 36 36 37 37 38 39 40 40 41 40 40 40 41 41 41 41 41 42 42 42 42 42 43 43 43 44 45 45 45 45 45 46 46 46 46 46 46 46 46
34 35 35 35 35 36 37 37 38 38 39 41 42 41 39 38 37 37 38 39 39 39 39 39 40 40 40 40 41 42 43 44 44 44 43 44 44 45 45 45 45 45 45 46 46 46 46 46 46 47 48 48 48 48 48 48 49 49 49 49 49 49 49
38 38 38 38 38 38 39 39 40 40 41 43 45 45 44 42 41 40 41 41 42 42 43 43 43 43 43 43 44 45 45 46 47 47 46 46 47 48 48 48 48 48 48 49 49 48 49 49 49 50 51 51 51 51 51 51 51 52 52 52 52 52 52
41 41 41 40 40 40 40 40 41 42 42 43 45 47 47 46 45 43 43 44 44 45 46 46 46 46 46 46 46 47 48 49 50 50 50 49 49 50 50 51 50 51 51 51 51 52 52 52 52 52 52 53 54 54 54 53 54 54 55 55 55 55 55
43 43 43 43 43 42 42 42 42 43 43 44 46 48 50 50 48 46 46 47 47 48 48 49 49 50 50 50 49 50 50 51 52 53 53 53 53 52 53 53 53 53 54 54 55 55 55 55 55 55 55 55 56 56 56 57 56 56 57 57 57 58 58
45 46 46 46 46 45 45 45 44 44 45 45 46 48 51 52 51 50 50 50 49 50 50 51 51 52 52 53 52 52 52 53 55 56 57 57 57 56 55 55 55 55 56 57 57 58 58 58 58 59 59 58 59 59 60 60 60 60 60 60 60 60 61
46 47 47 47 48 48 47 47 46 45 46 46 46 48 50 52 53 52 52 52 52 51 51 52 52 52 53 53 54 53 53 53 55 58 60 60 59 59 58 57 57 57 58 58 58 59 59 60 60 60 61 61 61 61 62 63 63 64 64 64 64 64 64
47 47 47 47 47 47 47 47 46 46 46 46 46 47 49 51 52 53 54 54 53 52 52 52 51 51 52 52 53 53 53 53 55 58 60 59 60 61 60 59 59 58 59 59 58 58 58 59 59 59 60 61 61 62 62 63 64 65 66 66 67 67 68
46 45 45 46 46 46 46 46 45 45 44 44 45 46 47 49 50 51 52 53 53 52 52 51 51 50 50 50 51 51 52 53 54 56 58 59 60 61 61 60 59 59 58 58 58 58 58 57 58 58 58 59 60 61 61 62 63 64 65 66 67 68 69
43 43 43 43 43 44 44 44 44 44 43 43 43 44 45 46 47 48 49 50 51 51 51 50 49 49 48 48 48 49 50 51 52 53 54 56 58 58 58 59 59 59 58 58 57 57 57 57 57 57 57 58 59 59 60 60 61 62 63 65 66 67 68
41 41 41 41 41 41 42 42 42 42 42 42 42 42 43 44 44 45 46 47 48 49 49 48 47 47 47 47 47 47 47 48 49 50 50 51 52 54 55 56 56 57 57 57 56 56 56 56 56 56 56 57 57 58 58 59 59 60 61 63 64 65 66
37 38 38 38 39 39 39 40 40 41 41 42 41 41 42 42 43 44 45 46 46 47 47 47 46 46 46 46 47 47 46 46 46 47 47 48 49 49 50 51 53 54 54 54 55 55 55 54 54 54 55 55 55 56 56 57 58 58 59 60 61 63 64
36 36 36 37 37 36 36 37 38 39 40 40 40 40 40 41 41 42 42 43 44 45 45 45 44 44 45 46 46 46 45 45 45 45 45 46 47 47 47 48 49 51 51 52 53 53 53 53 52 52 52 53 53 53 54 55 55 56 56 57 58 60 61
37 36 36 36 35 35 35 34 35 37 37 38 38 39 39 39 39 40 40 41 42 42 42 42 42 43 44 44 44 44 44 44 43 43 44 44 45 45 45 46 46 47 48 49 50 50 50 50 50 50 50 51 51 51 52 53 53 53 54 55 55 56 57
37 37 37 36 35 35 34 33 34 35 36 36 37 37 38 38 38 39 39 40 41 41 41 41 41 42 42 42 42 43 43 43 43 43 42 42 43 43 43 43 44 44 45 46 47 47 48 48 48 49 49 49 49 49 50 51 51 51 52 52 53 54 54
37 37 37 37 36 35 35 34 34 34 35 36 37 37 38 38 38 39 39 40 40 41 40 40 41 41 41 42 42 42 42 42 42 42 42 42 42 42 41 41 42 42 43 43 44 45 45 46 46 46 47 47 47 47 48 48 49 49 50 50 50 51 52
38 38 38 38 37 37 36 36 35 35 35 36 37 37 38 38 38 39 39 39 40 40 40 40 40 40 40 41 41 41 41 41 42 41 41 41 41 41 41 41 41 41 41 42 42 42 43 44 44 44 44 45 45 45 45 45 46 47 47 47 48 49 49
39 39 39 40 39 38 38 37 37 36 36 36 37 37 38 38 38 38 38 39 39 40 40 40 39 39 39 39 40 40 39 40 40 40 40 40 40 40 40 40 40 40 40 40 40 41 41 42 42 42 42 42 43 43 43 43 43 44 44 45 46 46 47
40 40 40 40 40 40 39 38 38 37 37 37 37 37 38 38 37 37 37 38 39 39 39 39 39 38 38 38 39 39 38 38 38 39 39 39 38 39 39 39 39 39 39 39 39 39 39 40 40 41 41 41 41 41 41 41 41 41 42 43 44 44 45
40 40 40 39 39 40 39 38 37 37 37 37 37 37 37 37 36 36 36 37 38 38 38 38 38 37 37 37 38 38 37 37 37 37 37 37 37 37 38 38 38 38 38 38 38 38 38 38 39 39 40 39 39 39 39 39 38 39 39 41 41 42 43
39 40 40 39 39 39 39 38 37 37 37 36 36 36 37 36 36 35 35 36 37 37 37 37 37 36 36 36 37 37 37 37 37 37 37 37 37 37 37 37 37 37 37 37 37 38 37 37 38 38 38 38 38 38 37 37 37 37 37 38 39 40 40
35 38 39 39 39 39 38 37 36 36 36 36 36 36 36 36 35 34 34 35 35 36 36 36 35 35 35 36 36 36 36 36 36 36 36 36 36 36 36 36 36 36 36 36 36 37 37 37 37 37 37 37 37 36 36 36 36 36 36 36 36 37 37
33 34 36 38 39 39 37 36 36 35 35 35 36 36 36 35 34 34 34 34 34 35 35 35 35 35 35 35 35 35 36 36 36 36 36 36 36 35 35 36 36 36 36 36 36 36 36 36 36 36 36 36 36 35 35 35 34 34 35 35 35 35 35

ECMWFFLT1_700_spd_240.txt.gz
Wind_Speed
39 39 38 39 39 39 39 39 40 40 39 40 40 40 40 40 39 40 40 41 42 40 40 41 41 41 40 39 37 36 36 36 37 37 37 36 36 35 35 34 35 36 37 37 38 39 40 40 40 40 40 40 42 43 43 43 42 43 44 45 46 47 47
36 36 35 35 35 36 36 37 37 37 37 37 38 38 39 38 38 38 39 39 39 39 39 40 40 39 37 36 35 35 35 34 35 35 35 35 35 35 34 33 33 33 33 34 35 36 37 37 37 38 39 40 40 41 42 42 43 42 42 42 42 43 45
32 32 32 32 32 32 33 34 34 34 35 35 35 36 36 36 35 35 36 35 35 35 35 37 37 35 34 33 35 37 36 35 34 33 33 32 32 32 33 32 32 32 32 34 35 35 35 34 34 34 35 37 38 38 39 40 42 44 44 44 43 43 43
30 30 30 30 30 30 30 31 31 32 32 33 33 33 34 34 34 33 33 33 32 31 32 32 33 32 31 30 32 35 35 34 32 31 30 30 30 30 30 30 30 30 31 33 34 34 34 35 35 34 35 35 36 36 36 36 38 40 42 44 44 44 44
29 30 30 30 30 29 29 29 30 30 30 31 31 32 32 33 33 33 32 32 32 31 31 31 31 32 31 30 30 31 32 32 30 28 28 28 28 29 29 28 28 29 30 31 32 32 32 33 34 33 34 35 35 35 35 35 35 36 37 39 40 40 40
30 29 30 30 30 30 30 30 30 30 30 30 30 30 31 31 32 32 32 32 31 31 30 30 30 31 31 30 30 31 31 31 30 28 27 27 27 27 28 28 28 28 29 30 31 32 32 33 34 33 32 32 33 33 33 33 34 34 34 34 35 35 35
29 29 30 30 30 31 31 31 31 31 31 31 30 30 30 30 31 31 31 31 31 30 30 30 30 30 30 31 31 32 32 32 32 31 30 29 28 28 28 29 29 29 29 31 32 33 33 34 35 35 33 32 32 33 33 32 32 33 33 33 34 34 33
30 30 30 30 30 31 32 32 32 32 32 33 32 31 30 30 30 31 31 32 32 31 31 31 31 31 31 32 32 33 33 34 35 35 34 34 32 31 30 30 30 30 30 31 32 34 35 35 36 36 35 34 34 34 34 33 33 33 33 34 34 35 33
31 31 31 31 31 32 32 33 33 33 34 35 35 33 31 30 30 31 31 31 32 33 32 33 33 33 33 33 34 34 35 35 36 36 36 36 35 35 34 33 32 32 31 32 33 34 35 35 36 37 37 36 35 35 35 35 35 35 34 34 34 36 35
33 33 33 33 33 33 34 34 35 35 35 36 37 36 33 31 31 31 31 32 33 33 33 34 34 35 35 35 36 36 36 36 37 37 37 37 36 36 36 35 35 34 34 34 34 36 36 36 37 38 37 36 36 35 36 36 36 36 36 35 35 37 37
36 36 36 35 35 35 35 36 36 37 37 37 39 40 37 34 32 32 32 33 34 34 35 35 35 36 36 37 37 37 37 38 38 38 38 38 37 37 37 36 36 36 36 35 36 37 37 37 37 39 39 38 37 37 37 37 37 37 37 37 37 37 38
38 38 38 38 37 37 37 37 37 38 39 39 40 42 42 37 34 33 33 33 34 35 36 36 36 36 37 38 38 38 38 38 38 38 37 37 37 37 37 37 36 36 36 36 36 37 37 37 37 38 39 39 38 38 38 38 39 39 39 38 38 38 38
41 40 40 39 39 39 39 39 39 39 40 40 40 43 45 41 36 34 35 35 35 36 37 37 36 36 37 38 39 39 38 38 38 37 37 36 36 37 37 37 37 37 36 36 36 36 37 37 37 37 39 39 38 37 37 37 38 38 39 39 39 39 39
43 42 42 41 41 41 41 41 41 41 41 42 42 43 47 45 40 37 37 37 37 37 38 39 38 38 38 38 39 40 39 39 39 38 38 37 36 37 37 38 37 38 37 37 37 37 37 37 37 38 38 39 39 38 38 38 37 37 38 39 38 39 39
44 44 43 42 42 42 41 41 43 42 42 43 43 44 47 47 43 40 39 38 38 38 39 40 40 39 39 40 40 41 41 41 41 40 40 39 38 38 39 39 39 39 39 39 39 38 38 38 39 39 40 40 41 41 41 40 40 39 40 40 40 39 39
46 45 44 44 43 43 42 42 43 44 44 44 44 45 47 48 46 44 42 40 39 40 40 41 42 42 41 41 41 42 42 43 43 42 42 41 41 40 40 41 41 41 41 42 42 41 41 41 41 41 42 42 43 43 43 43 43 43 43 43 43 42 42
47 46 46 46 45 44 44 42 42 44 44 44 45 47 47 48 48 46 44 42 41 41 41 42 43 44 43 42 42 43 44 44 45 45 44 44 43 43 42 42 42 42 43 43 43 44 44 44 44 44 44 44 44 45 45 45 45 45 45 45 45 45 45
47 46 46 46 46 45 45 43 42 43 44 44 45 47 48 49 49 48 47 44 42 42 43 43 43 45 45 44 43 43 44 45 46 47 47 46 46 45 45 44 44 44 44 44 45 46 47 47 47 47 47 47 47 47 47 47 47 47 47 47 47 48 47
44 44 44 44 44 44 44 43 42 41 43 43 44 45 47 48 49 48 48 47 43 41 42 43 44 45 46 46 45 44 44 46 47 48 49 49 48 47 46 46 45 45 45 46 46 47 48 49 49 50 50 50 50 50 50 50 50 50 50 50 50 50 50
41 41 41 42 42 42 42 42 41 40 40 42 42 44 46 47 47 47 48 47 44 41 40 42 43 44 45 46 45 44 44 45 46 49 51 50 48 49 49 48 46 46 47 47 48 48 48 49 50 51 52 52 52 52 53 53 53 53 53 53 53 53 53
37 38 38 38 39 40 40 40 40 39 38 39 40 42 44 45 45 46 47 47 45 42 39 38 40 42 43 44 44 43 43 44 46 49 50 49 49 50 51 49 48 47 47 48 48 48 48 49 50 51 52 53 54 54 54 54 55 55 56 56 56 55 55
36 36 36 36 37 37 38 38 39 38 38 38 38 40 42 43 44 44 45 46 46 44 41 38 37 38 40 42 43 42 42 43 44 46 47 48 49 50 50 50 50 49 48 48 48 48 48 48 49 50 51 52 53 54 54 54 55 56 57 57 57 58 58
37 36 36 35 35 36 36 37 37 38 38 38 38 38 40 41 42 43 44 45 45 45 44 41 39 37 37 39 40 41 42 42 42 43 44 46 48 49 49 50 50 50 49 48 47 47 47 47 48 49 50 51 52 52 52 53 54 56 57 57 57 58 58
37 36 36 35 34 34 35 35 36 36 37 38 38 38 39 40 40 41 42 44 44 45 44 43 41 39 38 38 39 40 40 41 41 41 42 43 44 46 47 48 49 49 50 49 48 47 46 46 47 47 48 49 50 50 51 52 53 54 55 56 56 57 58
36 36 35 35 34 33 33 33 34 34 35 36 36 36 37 38 39 39 40 41 42 43 43 43 41 39 38 38 38 39 39 39 39 40 40 40 41 42 43 44 45 46 47 48 48 47 47 46 46 46 47 47 48 49 49 50 51 52 53 54 54 54 55
36 35 35 35 34 33 33 32 33 33 34 35 35 35 35 36 37 38 39 40 41 41 42 42 41 40 40 39 39 39 39 39 39 39 39 40 40 41 42 42 43 44 45 45 46 46 46 45 45 45 45 46 47 47 47 48 49 50 51 51 52 52 53
36 36 36 35 35 34 33 33 33 33 34 35 35 35 35 36 36 37 38 39 40 41 42 42 42 41 42 42 41 41 40 40 41 40 40 41 41 42 42 43 44 44 45 45 45 45 45 45 44 44 44 45 45 46 46 47 47 48 48 48 50 51 51
37 36 36 36 35 34 34 33 32 34 35 36 36 36 36 36 36 37 38 39 40 41 42 42 42 41 42 43 43 43 43 42 42 43 43 43 43 43 44 44 45 45 46 46 47 46 46 45 45 45 44 44 44 44 45 45 46 46 47 47 48 49 49
37 36 37 36 35 35 34 32 31 33 34 35 36 36 36 35 36 36 37 38 39 41 41 41 41 41 41 42 43 44 44 43 43 43 44 44 44 44 44 45 45 46 46 47 47 47 47 47 46 46 45 44 44 44 44 44 45 45 46 46 47 47 47
36 36 37 37 36 35 35 33 32 32 34 35 35 35 36 35 35 36 36 37 38 39 39 39 39 39 40 40 41 42 42 42 42 42 43 43 43 44 44 44 45 45 46 46 46 46 46 47 47 46 46 45 44 44 43 43 44 44 44 45 45 46 46
35 35 36 37 37 36 35 35 34 33 33 34 34 35 35 35 35 35 35 36 37 38 37 37 37 38 38 38 39 40 40 40 40 40 41 41 41 41 42 42 43 44 44 44 45 45 45 45 46 46 45 45 44 44 43 42 43 43 43 43 44 44 44
34 34 35 36 37 37 36 35 35 34 34 33 34 34 35 35 35 35 35 36 37 37 36 36 37 37 37 37 38 38 38 39 38 38 39 39 39 39 39 40 41 42 42 42 43 43 43 43 44 44 44 44 43 43 43 42 41 42 42 42 42 43 43
32 33 33 34 34 35 35 35 35 35 34 34 34 34 34 35 35 34 35 36 37 37 36 36 36 37 36 36 37 37 37 38 37 37 37 38 38 38 37 38 39 40 40 40 40 41 41 41 42 42 43 42 42 42 42 41 41 41 41 41 41 41 42
29 31 32 32 32 33 34 34 34 34 34 34 34 33 34 35 34 33 34 35 36 36 36 36 36 36 36 36 36 37 37 37 37 37 37 37 37 37 37 37 37 38 38 38 38 39 39 39 40 41 41 41 40 40 40 40 40 40 40 40 40 40 40
27 29 30 30 31 32 33 33 34 33 33 33 33 33 34 34 33 33 33 34 36 36 36 36 36 35 35 36 36 36 36 36 36 36 36 36 36 36 36 36 36 36 37 37 37 37 37 38 38 39 39 39 39 39 38 38 38 38 38 38 39 39 39
27 28 28 29 30 31 32 32 32 32 32 32 32 33 34 34 33 32 32 33 34 35 36 36 36 35 35 35 35 35 35 36 36 36 36 36 36 36 36 36 36 36 36 36 36 36 36 36 36 37 37 37 37 37 37 36 37 37 37 37 37 38 37

ECMWFFLT1_700_spd_246.txt.gz
Wind_Speed
44 44 44 44 44 44 45 44 44 44 44 43 43 43 43 43 42 41 41 40 39 38 38 38 38 38 38 39 39 40 40 40 40 40 40 40 40 41 42 43 43 45 47 49 49 50 51 50 48 47 46 46 47 48 49 51 53 53 52 51 50 49 47
44 44 44 44 44 43 43 43 43 43 43 42 42 42 42 42 41 41 40 39 39 39 38 37 38 38 38 38 38 39 39 39 38 38 38 38 38 38 39 40 40 41 44 45 46 47 49 50 49 47 46 45 45 45 46 48 49 51 52 51 49 48 48
45 45 44 44 44 43 43 43 43 42 42 42 42 41 41 41 41 41 40 39 38 38 38 38 37 37 37 37 37 37 38 38 38 37 37 37 37 37 37 38 38 38 39 40 40 41 44 46 47 47 46 46 45 45 44 45 47 48 50 50 50 49 47
46 46 45 45 45 44 44 44 43 43 43 43 42 42 41 41 41 41 40 39 38 38 38 39 38 37 37 36 37 37 37 37 37 37 37 37 36 36 36 36 37 37 37 36 36 37 39 41 43 45 45 44 44 44 44 45 46 47 48 49 49 49 48
47 47 47 47 46 46 46 45 45 44 44 44 44 43 43 42 42 41 41 39 38 37 38 39 39 39 38 37 37 37 37 37 37 36 36 36 36 36 36 36 36 36 36 36 36 35 35 38 41 43 43 42 41 41 42 43 44 44 45 46 48 48 49
48 48 48 48 48 48 48 47 47 46 46 46 46 46 45 44 43 43 42 40 39 38 37 38 39 40 40 39 39 38 37 37 37 37 36 36 36 36 36 36 36 36 36 36 36 35 35 35 38 40 39 38 37 36 36 37 39 40 41 42 44 45 46
49 49 50 50 50 49 49 49 49 48 48 48 48 48 48 47 46 45 44 42 40 39 38 38 38 40 41 41 40 40 39 38 37 37 37 37 36 36 36 36 36 36 36 36 36 36 35 35 36 37 37 36 35 34 33 33 34 35 36 37 38 39 39
50 50 50 50 51 51 51 51 50 50 50 50 50 50 50 50 50 48 46 45 43 41 40 39 38 40 41 42 42 41 41 40 39 38 38 37 37 37 37 37 36 36 36 36 36 36 36 36 36 37 37 36 35 34 34 33 33 33 34 35 35 35 34
50 51 51 51 51 51 51 51 51 51 51 51 51 51 52 52 52 51 50 48 46 44 42 41 39 40 41 42 43 43 42 42 41 41 40 39 38 38 37 38 37 37 37 37 37 37 36 36 36 37 37 37 36 35 34 34 35 35 35 35 35 36 34
49 49 50 50 50 50 50 50 50 50 51 51 52 52 52 53 54 54 53 51 49 47 45 43 42 41 42 43 43 43 43 43 43 42 42 41 40 40 39 39 38 38 38 37 37 38 38 37 37 37 38 38 38 37 36 36 36 37 37 37 37 37 38
47 47 47 48 48 48 48 48 48 49 49 50 50 51 52 53 54 54 54 53 52 50 47 46 45 44 43 44 44 44 44 44 44 43 43 43 42 42 41 40 40 40 39 39 38 38 38 39 38 38 39 40 39 39 39 38 38 39 39 39 39 38 39
46 45 45 46 46 46 46 45 45 46 47 47 48 48 50 52 54 54 54 53 51 49 48 47 47 46 45 44 45 45 45 44 44 44 44 44 43 43 42 42 42 42 41 40 40 39 39 40 40 39 40 41 41 40 40 40 40 40 40 41 41 40 39
45 45 44 44 44 44 44 44 44 44 44 45 45 45 47 50 53 54 53 52 49 47 47 48 48 46 45 45 45 45 45 45 45 45 45 45 44 43 43 43 43 43 43 43 42 41 40 40 40 40 40 41 41 41 41 40 40 40 41 42 42 42 41
45 44 44 44 44 43 42 42 42 42 42 42 43 43 45 48 51 51 51 50 47 45 46 47 47 46 46 45 45 45 46 46 45 46 46 46 45 44 44 44 43 43 44 44 44 43 42 41 40 41 41 41 41 42 42 41 40 40 40 41 41 42 42
44 43 43 43 43 43 42 41 41 41 41 41 41 42 44 46 48 48 48 47 44 42 44 45 46 45 45 45 45 45 45 45 45 46 47 46 45 45 45 44 44 44 44 44 45 44 43 42 42 42 42 42 42 43 43 42 41 40 40 41 41 41 41
42 42 41 41 41 41 40 40 40 41 41 40 40 42 44 45 45 45 45 44 40 39 41 42 43 44 44 44 44 44 44 44 45 46 47 46 45 45 45 45 44 44 43 44 45 45 45 44 44 43 43 43 43 44 43 43 42 42 42 42 42 41 41
41 41 41 40 40 40 39 38 38 39 40 40 40 41 43 44 45 45 44 42 38 37 38 39 40 42 42 42 41 41 42 43 44 45 46 46 46 46 45 44 43 42 42 43 44 45 46 46 46 45 44 44 45 45 44 44 44 44 43 43 43 43 41
41 40 40 40 40 40 39 38 37 38 38 38 39 41 42 43 44 45 44 41 38 36 37 38 38 39 40 39 39 38 39 40 42 44 45 46 47 46 44 42 42 42 42 42 42 43 45 46 46 45 45 45 45 46 45 45 45 45 45 45 44 44 43
40 40 39 39 39 39 39 39 38 37 37 37 38 40 41 42 43 43 42 41 39 37 37 37 37 37 38 38 37 36 37 38 39 42 45 46 46 44 42 41 43 42 41 40 41 42 44 44 45 45 45 45 45 46 46 46 47 47 46 46 46 46 45
41 40 39 39 39 38 39 39 38 37 37 37 37 39 40 41 42 41 41 41 39 38 37 37 37 37 37 37 36 35 35 36 38 41 43 44 43 42 41 42 43 42 40 40 40 41 42 42 43 44 45 45 45 46 46 47 48 48 48 47 47 47 47
41 41 40 39 39 38 38 39 38 37 37 37 37 37 39 40 40 41 41 41 39 38 38 37 37 37 37 37 36 35 35 36 37 40 41 41 42 42 42 42 41 40 40 39 39 40 40 41 42 42 43 44 44 44 45 46 47 48 49 49 48 47 47
42 41 40 38 37 37 37 38 38 38 37 37 37 36 37 38 38 39 40 40 39 38 39 38 37 36 37 37 36 35 35 36 36 38 39 40 41 42 42 42 42 41 40 39 39 39 39 40 41 42 42 43 43 43 43 44 46 48 49 49 49 48 48
41 41 38 36 34 34 35 35 36 36 37 37 37 36 36 36 37 38 39 39 38 38 38 38 37 36 36 37 36 35 35 35 36 36 37 38 40 41 41 41 41 41 41 40 39 39 39 39 40 41 41 42 42 42 43 43 44 46 47 48 49 49 49
40 40 37 34 31 30 31 32 32 33 35 36 37 36 36 35 36 36 37 38 37 37 37 37 36 36 36 36 36 36 36 36 36 36 37 37 38 39 40 40 40 41 41 40 39 39 39 38 39 40 41 41 41 41 42 43 43 44 45 46 47 48 48
40 39 37 35 32 30 29 29 30 30 32 34 34 34 34 34 35 35 36 37 37 37 37 36 35 35 35 35 36 36 36 37 37 37 37 38 38 39 40 40 40 40 40 40 39 39 38 38 38 39 40 40 40 40 41 41 42 42 43 44 45 45 46
39 39 38 36 34 31 29 28 29 29 31 32 31 31 32 32 33 34 35 35 36 36 37 36 35 34 34 34 35 36 36 36 36 36 37 37 38 39 40 41 41 41 41 40 40 39 39 39 39 39 40 40 40 40 40 41 41 41 42 43 43 43 43
39 39 38 36 34 32 30 28 28 29 30 31 31 30 30 30 31 32 33 34 34 35 35 35 34 33 33 34 34 36 37 37 37 36 36 36 37 38 39 40 41 41 41 41 41 40 39 39 39 40 40 41 41 41 41 42 42 41 42 42 43 42 41
38 38 38 37 35 33 30 28 27 29 29 29 29 29 28 28 29 30 31 32 33 33 33 33 32 31 31 32 33 35 36 37 37 38 37 37 37 37 38 38 39 40 40 41 41 41 39 38 39 39 40 40 41 41 42 43 43 43 43 43 43 43 42
39 39 39 38 36 35 32 29 27 28 28 28 28 28 28 27 27 28 28 29 31 32 31 31 30 30 30 31 32 32 33 34 36 37 37 37 37 37 37 37 38 39 40 40 41 41 39 38 37 37 38 39 39 40 40 42 43 43 43 43 44 44 44
40 40 40 40 38 36 35 32 30 28 28 27 27 27 28 28 28 28 28 28 30 30 30 29 29 29 29 29 30 30 31 32 34 35 35 36 37 37 36 36 37 38 39 40 41 40 39 39 38 37 37 37 37 37 38 39 40 41 42 42 43 43 43
39 40 40 41 40 38 36 34 32 30 29 28 28 28 28 28 28 29 29 29 30 30 29 29 29 28 28 29 29 29 30 31 32 33 34 34 35 35 35 35 35 37 38 39 39 39 39 39 39 38 37 37 37 36 36 37 38 39 40 40 41 41 41
37 39 40 40 41 40 39 37 34 33 31 30 29 29 29 29 28 27 28 29 30 30 28 28 29 28 28 28 28 28 29 30 31 31 32 33 34 33 33 34 34 35 37 37 37 38 38 39 38 38 37 37 37 36 36 36 36 37 38 39 39 39 39
35 37 38 39 40 41 42 40 38 36 34 32 32 32 32 30 28 27 27 28 29 29 28 28 29 28 28 28 28 28 28 29 29 30 31 32 32 32 32 33 34 35 35 35 35 36 36 36 37 37 37 37 37 37 36 35 35 36 37 38 38 37 37
33 35 37 37 38 40 42 41 40 38 37 35 34 34 35 33 30 28 29 29 30 29 28 28 28 28 28 28 28 28 28 28 28 29 30 30 31 31 31 32 33 34 34 34 35 35 35 35 35 36 36 36 36 36 36 35 35 35 36 37 37 37 36
30 33 35 36 36 38 40 40 40 39 38 37 37 37 37 37 34 31 31 31 31 31 30 29 29 28 28 28 28 28 28 28 28 28 29 29 30 30 30 31 32 33 33 34 34 34 34 34 34 34 35 35 35 35 35 35 34 35 35 36 36 36 36
32 32 32 33 35 38 39 39 39 38 37 37 37 38 39 39 37 35 33 32 32 32 32 31 30 29 28 28 28 28 28 28 28 28 29 29 30 30 30 30 31 31 32 33 33 33 33 33 33 34 34 35 35 34 34 34 34 34 35 35 35 36 36